Location: Miss�
(46.9484°N, 0.1922°W)
Time: 03:25:53
(UTC+00:00)

USA 306 - Pass Details

Date: 02 March 2021
Orbit: 564 x 577 km, 54.0° (Epoch: 16 April)

Event Time Altitude Azimuth Distance (km) Brightness Sun altitude
Rises 19:57:17 0° 289° (WNW) 2,772 7.9 -22.7°
Reaches altitude 10° 19:59:45 10° 300° (WNW) 1,872 6.6 -23.1°
Maximum altitude 20:03:34 31° 3° (N) 1,004 4.2 -23.7°
Enters shadow 20:03:53 31° 12° (NNE) 1,012 4.1 -23.8°
